Home   Weather   Flint   Past weeks
Flag for USA

Past Weather in Flint, Michigan, USA — Yesterday and Last 2 Weeks

Now
47 °F

Mostly cloudy.


Feels Like: 40 °F
Forecast: 50 / 41 °F
Wind: 18 mph from Northwest

Location: Bishop International Airport

Current Time: Oct 16, 2019 at 8:44:07 pm

Latest Report: Oct 16, 2019 at 7:53 pm


Visibility: 10 mi

Pressure: 29.75 "Hg

Humidity: 71%

Dew Point: 38 °F

Location of FlintLocation

Past Weather in Flint — Graph

°F

Flint Temperature Yesterday

Maximum temperature yesterday: 60 °F (at 4:53 pm)
Minimum temperature yesterday: 31 °F (at 3:53 am)
Average temperature yesterday: 48 °F

High & Low Weather Summary for the Past Weeks

 TemperatureHumidityPressure
High72 °F (Oct 10, 2:53 pm)94% (Oct 2, 5:20 am)30.42 "Hg (Oct 2, 5:20 am)
Low31 °F (Oct 15, 3:53 am)32% (Oct 13, 2:53 pm)29.56 "Hg (Oct 16, 10:28 am)
Average54 °F73%30.03 "Hg
* Reported Oct 1 6:14 pm — Oct 16 6:53 pm, Flint. Weather by CustomWeather, © 2019

Note: Actual official high and low records may vary slightly from our data, if they occured in-between our weather recording intervals... More about our weather records

Advertising

Flint Weather History for the Previous 24 Hours

Scroll right to see more
 ConditionsComfort  
Time TempWeatherWind HumidityBarometerVisibility
6:53 pm
Wed, Oct 16
49 °FMostly cloudy.22 mph66%29.72 "Hg10 mi
5:53 pm49 °FCloudy.15 mph69%29.69 "Hg10 mi
4:53 pm49 °FMostly cloudy.18 mph69%29.67 "Hg10 mi
4:40 pm49 °FMore clouds than sun.24 mph71%29.65 "Hg10 mi
3:53 pm50 °FMostly cloudy.16 mph68%29.64 "Hg10 mi
3:07 pm49 °FMore clouds than sun.16 mph80%29.62 "Hg10 mi
2:34 pm48 °FLight rain. Cloudy.18 mph83%29.60 "Hg7 mi
2:09 pm49 °FLight rain. Fog.13 mph86%29.59 "Hg2 mi
2:00 pm49 °FLight rain. Fog.13 mph86%29.59 "Hg3 mi
12:53 pm50 °FMostly cloudy.16 mph80%29.58 "Hg10 mi
12:00 pm50 °FMostly cloudy.15 mph83%29.56 "Hg10 mi
11:04 am47 °FLight rain. Fog.8 mph86%29.56 "Hg2 mi
10:28 am47 °FLight rain. Mostly cloudy.12 mph83%29.56 "Hg2 mi
9:53 am47 °FOvercast.14 mph77%29.57 "Hg10 mi
9:37 am47 °FOvercast.10 mph74%29.57 "Hg10 mi
8:53 am47 °FMostly cloudy.15 mph71%29.58 "Hg10 mi
7:53 am47 °FOvercast.14 mph77%29.59 "Hg10 mi
7:32 am47 °FMostly cloudy.10 mph74%29.59 "Hg10 mi
6:53 am48 °FOvercast.16 mph71%29.60 "Hg10 mi
5:53 am49 °FOvercast.12 mph77%29.62 "Hg10 mi
4:53 am49 °FPassing clouds.10 mph74%29.65 "Hg10 mi
4:20 am50 °FMostly cloudy.10 mph80%29.64 "Hg10 mi
4:02 am51 °FOvercast.16 mph83%29.63 "Hg10 mi
2:53 am53 °FLight rain. Overcast.13 mph86%29.64 "Hg8 mi
2:38 am55 °FHeavy rain. Fog.18 mph87%29.63 "Hg3 mi
2:06 am54 °FLight rain. Fog.6 mph90%29.63 "Hg6 mi
1:39 am54 °FRain. Fog.7 mph90%29.63 "Hg3 mi
1:19 am56 °FLight rain. Mostly cloudy.No wind81%29.61 "Hg8 mi
1:07 am56 °FMostly cloudy.8 mph81%29.62 "Hg10 mi
1:00 am56 °FLight rain. Mostly cloudy.9 mph81%29.62 "Hg10 mi
11:53 pm
Tue, Oct 15
56 °FPassing clouds.10 mph72%29.62 "Hg10 mi
10:53 pm57 °FPassing clouds.12 mph69%29.65 "Hg10 mi
9:53 pm56 °FMostly cloudy.9 mph72%29.68 "Hg10 mi
8:53 pm56 °FMostly cloudy.9 mph67%29.72 "Hg10 mi
Weather by CustomWeather, © 2019

See weather overview